Time,TemperatureF,DewpointF,PressureIn,WindDirection,WindDirectionDegrees,WindSpeedMPH,WindSpeedGustMPH,Humidity,HourlyPrecipIn,Conditions,Clouds,dailyrainin,SoftwareType,DateUTC
2015-04-26 00:00:00,77.7,72.8,29.83,WSW,243,5.0,6.0,85,0.00,CLR,,0.00,WeatherDisplay:10.37,2015-04-26 04:00:00,
2015-04-26 00:05:00,77.6,72.4,29.83,WSW,244,3.0,6.0,84,0.00,CLR,,0.00,WeatherDisplay:10.37,2015-04-26 04:05:00,
2015-04-26 00:10:00,77.5,72.3,29.83,WSW,243,3.0,5.0,84,0.00,CLR,,0.00,WeatherDisplay:10.37,2015-04-26 04:10:00,
2015-04-26 00:20:00,77.2,72.3,29.84,WSW,254,2.0,6.0,85,0.00,CLR,,0.00,WeatherDisplay:10.37,2015-04-26 04:20:00,
2015-04-26 00:30:00,76.9,72.0,29.83,WSW,248,3.0,5.0,85,0.00,CLR,,0.00,WeatherDisplay:10.37,2015-04-26 04:30:00,
2015-04-26 00:40:00,76.6,72.1,29.84,WSW,240,1.0,5.0,86,0.00,CLR,,0.00,WeatherDisplay:10.37,2015-04-26 04:40:00,
2015-04-26 00:50:00,76.2,71.7,29.83,SW,236,0.0,3.0,86,0.00,CLR,,0.00,WeatherDisplay:10.37,2015-04-26 04:50:00,
2015-04-26 01:00:00,75.9,71.8,29.83,SW,236,1.0,4.0,87,0.00,CLR,,0.00,WeatherDisplay:10.37,2015-04-26 05:00:00,
2015-04-26 01:05:00,75.8,72.0,29.83,WSW,258,1.0,8.0,88,0.00,CLR,,0.00,WeatherDisplay:10.37,2015-04-26 05:05:00,
2015-04-26 01:10:00,75.7,71.9,29.83,WSW,255,3.0,6.0,88,0.00,CLR,,0.00,WeatherDisplay:10.37,2015-04-26 05:10:00,
2015-04-26 01:20:00,75.5,72.1,29.82,WSW,252,5.0,10.0,89,0.00,CLR,,0.00,WeatherDisplay:10.37,2015-04-26 05:20:00,
2015-04-26 01:30:00,75.4,71.9,29.81,SW,227,2.0,10.0,89,0.00,CLR,,0.00,WeatherDisplay:10.37,2015-04-26 05:30:00,
2015-04-26 01:40:00,75.2,72.1,29.81,WSW,239,2.0,6.0,90,0.00,CLR,,0.00,WeatherDisplay:10.37,2015-04-26 05:40:00,
2015-04-26 01:50:00,75.1,72.0,29.81,SW,234,1.0,4.0,90,0.00,CLR,,0.00,WeatherDisplay:10.37,2015-04-26 05:50:00,
2015-04-26 02:00:00,75.0,72.2,29.81,WSW,246,3.0,5.0,91,0.00,CLR,,0.00,WeatherDisplay:10.37,2015-04-26 06:00:00,
2015-04-26 02:05:00,74.9,72.1,29.81,WSW,250,3.0,5.0,91,0.00,CLR,,0.00,WeatherDisplay:10.37,2015-04-26 06:05:00,
2015-04-26 02:10:00,74.9,72.4,29.80,West,259,3.0,6.0,92,0.00,CLR,,0.00,WeatherDisplay:10.37,2015-04-26 06:10:00,
2015-04-26 02:20:00,74.9,72.4,29.80,WSW,258,3.0,10.0,92,0.00,CLR,,0.00,WeatherDisplay:10.37,2015-04-26 06:20:00,
2015-04-26 02:30:00,74.8,72.3,29.79,West,260,6.0,12.0,92,0.00,CLR,,0.00,WeatherDisplay:10.37,2015-04-26 06:30:00,
2015-04-26 02:40:00,74.8,72.3,29.79,WSW,255,6.0,12.0,92,0.00,CLR,,0.00,WeatherDisplay:10.37,2015-04-26 06:40:00,
2015-04-26 02:45:00,74.7,72.2,29.79,WSW,253,3.0,10.0,92,0.00,CLR,,0.00,WeatherDisplay:10.37,2015-04-26 06:45:00,
2015-04-26 02:55:00,74.6,72.4,29.78,WSW,256,2.0,12.0,93,0.00,CLR,,0.00,WeatherDisplay:10.37,2015-04-26 06:55:00,
2015-04-26 03:00:00,74.6,72.4,29.78,WSW,257,3.0,9.0,93,0.00,CLR,,0.00,WeatherDisplay:10.37,2015-04-26 07:00:00,
2015-04-26 03:05:00,74.6,72.4,29.79,West,259,5.0,10.0,93,0.00,CLR,,0.00,WeatherDisplay:10.37,2015-04-26 07:05:00,
2015-04-26 03:10:00,74.5,72.3,29.78,WSW,257,3.0,9.0,93,0.00,CLR,,0.00,WeatherDisplay:10.37,2015-04-26 07:10:00,
2015-04-26 03:30:00,74.3,72.5,29.77,WSW,238,5.0,11.0,94,0.00,CLR,,0.00,WeatherDisplay:10.37,2015-04-26 07:30:00,
2015-04-26 03:40:00,74.3,72.5,29.76,WSW,242,2.0,9.0,94,0.00,CLR,,0.00,WeatherDisplay:10.37,2015-04-26 07:40:00,
2015-04-26 03:50:00,74.1,72.3,29.76,SW,234,2.0,7.0,94,0.00,CLR,,0.00,WeatherDisplay:10.37,2015-04-26 07:50:00,
2015-04-26 04:00:00,74.0,72.2,29.76,SW,233,6.0,12.0,94,0.00,CLR,,0.00,WeatherDisplay:10.37,2015-04-26 08:00:00,
2015-04-26 04:05:00,74.0,72.5,29.75,SW,235,6.0,12.0,95,0.00,CLR,,0.00,WeatherDisplay:10.37,2015-04-26 08:05:00,
2015-04-26 04:10:00,74.0,72.5,29.75,SW,233,5.0,9.0,95,0.00,CLR,,0.00,WeatherDisplay:10.37,2015-04-26 08:10:00,
2015-04-26 04:20:00,74.0,72.5,29.75,SW,227,5.0,13.0,95,0.00,CLR,,0.00,WeatherDisplay:10.37,2015-04-26 08:20:00,
2015-04-26 04:30:00,74.0,72.5,29.75,WSW,239,5.0,10.0,95,0.00,CLR,,0.00,WeatherDisplay:10.37,2015-04-26 08:30:00,
2015-04-26 04:40:00,74.1,72.6,29.74,SW,227,5.0,12.0,95,0.00,CLR,,0.00,WeatherDisplay:10.37,2015-04-26 08:40:00,
2015-04-26 04:50:00,74.2,72.7,29.74,SW,231,5.0,12.0,95,0.00,CLR,,0.00,WeatherDisplay:10.37,2015-04-26 08:50:00,
2015-04-26 05:00:00,74.1,72.6,29.74,SW,226,5.0,12.0,95,0.00,CLR,,0.00,WeatherDisplay:10.37,2015-04-26 09:00:00,
2015-04-26 05:05:00,74.0,72.5,29.74,SW,230,3.0,9.0,95,0.00,CLR,,0.00,WeatherDisplay:10.37,2015-04-26 09:05:00,
2015-04-26 05:15:00,74.0,72.5,29.74,SW,231,3.0,13.0,95,0.00,CLR,,0.00,WeatherDisplay:10.37,2015-04-26 09:15:00,
2015-04-26 05:22:00,74.0,72.4,29.74,SW,230,5.0,10.0,95,0.00,CLR,,0.00,WeatherDisplay:10.37,2015-04-26 09:22:00,
2015-04-26 05:30:00,73.9,72.4,29.74,SW,230,3.0,14.0,95,0.00,CLR,,0.00,WeatherDisplay:10.37,2015-04-26 09:30:00,
2015-04-26 05:40:00,74.0,72.5,29.72,SW,219,9.0,17.0,95,0.00,CLR,,0.00,WeatherDisplay:10.37,2015-04-26 09:40:00,
2015-04-26 05:50:00,74.0,72.4,29.74,SW,221,3.0,14.0,95,0.00,CLR,,0.00,WeatherDisplay:10.37,2015-04-26 09:50:00,
2015-04-26 06:00:00,74.0,72.2,29.73,SW,225,3.0,10.0,94,0.00,CLR,,0.00,WeatherDisplay:10.37,2015-04-26 10:00:00,
2015-04-26 06:10:00,74.0,72.2,29.74,SW,231,2.0,7.0,94,0.00,CLR,,0.00,WeatherDisplay:10.37,2015-04-26 10:10:00,
2015-04-26 06:20:00,74.1,71.9,29.75,SW,235,1.0,7.0,93,0.00,CLR,,0.00,WeatherDisplay:10.37,2015-04-26 10:20:00,
2015-04-26 06:30:00,74.0,71.8,29.75,WSW,241,0.0,4.0,93,0.00,CLR,,0.00,WeatherDisplay:10.37,2015-04-26 10:30:00,
2015-04-26 06:35:00,74.0,71.8,29.75,WSW,248,2.0,6.0,93,0.00,CLR,,0.00,WeatherDisplay:10.37,2015-04-26 10:35:00,
2015-04-26 06:40:00,74.0,71.5,29.75,WSW,250,1.0,5.0,92,0.00,CLR,,0.00,WeatherDisplay:10.37,2015-04-26 10:40:00,
2015-04-26 06:50:00,74.0,71.2,29.75,WSW,240,3.0,6.0,91,0.00,CLR,,0.00,WeatherDisplay:10.37,2015-04-26 10:50:00,
2015-04-26 07:00:00,74.2,71.4,29.75,WSW,239,3.0,7.0,91,0.00,CLR,,0.00,WeatherDisplay:10.37,2015-04-26 11:00:00,
2015-04-26 07:10:00,74.7,71.6,29.76,WSW,238,3.0,8.0,90,0.00,CLR,,0.00,WeatherDisplay:10.37,2015-04-26 11:10:00,
2015-04-26 07:20:00,75.2,71.7,29.76,SW,229,3.0,9.0,89,0.00,CLR,,0.00,WeatherDisplay:10.37,2015-04-26 11:20:00,
2015-04-26 07:30:00,75.6,72.1,29.76,SW,232,3.0,9.0,89,0.00,CLR,,0.00,WeatherDisplay:10.37,2015-04-26 11:30:00,
2015-04-26 07:35:00,75.8,72.3,29.76,SW,234,5.0,12.0,89,0.00,CLR,,0.00,WeatherDisplay:10.37,2015-04-26 11:35:00,
2015-04-26 07:40:00,76.1,72.6,29.76,SW,233,6.0,13.0,89,0.00,CLR,,0.00,WeatherDisplay:10.37,2015-04-26 11:40:00,
2015-04-26 07:50:00,76.6,72.8,29.76,SW,232,2.0,12.0,88,0.00,CLR,,0.00,WeatherDisplay:10.37,2015-04-26 11:50:00,
2015-04-26 07:55:00,76.8,73.0,29.76,WSW,237,3.0,9.0,88,0.00,CLR,,0.00,WeatherDisplay:10.37,2015-04-26 11:55:00,
2015-04-26 08:00:00,77.0,72.8,29.76,WSW,243,6.0,12.0,87,0.00,CLR,,0.00,WeatherDisplay:10.37,2015-04-26 12:00:00,
2015-04-26 08:05:00,77.3,73.1,29.76,WSW,248,5.0,12.0,87,0.00,CLR,,0.00,WeatherDisplay:10.37,2015-04-26 12:05:00,
2015-04-26 08:10:00,77.5,73.3,29.76,WSW,245,2.0,10.0,87,0.00,CLR,,0.00,WeatherDisplay:10.37,2015-04-26 12:10:00,
2015-04-26 08:20:00,78.0,73.5,29.77,WSW,239,2.0,10.0,86,0.00,CLR,,0.00,WeatherDisplay:10.37,2015-04-26 12:20:00,
2015-04-26 08:30:00,78.4,73.6,29.77,WSW,249,3.0,12.0,85,0.00,CLR,,0.00,WeatherDisplay:10.37,2015-04-26 12:30:00,
2015-04-26 08:40:00,78.9,73.7,29.77,WSW,245,6.0,12.0,84,0.00,CLR,,0.00,WeatherDisplay:10.37,2015-04-26 12:40:00,
2015-04-26 08:50:00,79.4,73.8,29.77,WSW,249,5.0,14.0,83,0.00,CLR,,0.00,WeatherDisplay:10.37,2015-04-26 12:50:00,
2015-04-26 09:00:00,80.0,74.0,29.77,WSW,240,5.0,12.0,82,0.00,CLR,,0.00,WeatherDisplay:10.37,2015-04-26 13:00:00,
2015-04-26 09:05:00,80.3,74.3,29.77,WSW,254,6.0,14.0,82,0.00,CLR,,0.00,WeatherDisplay:10.37,2015-04-26 13:05:00,
2015-04-26 09:10:00,80.5,74.1,29.77,WSW,248,3.0,15.0,81,0.00,CLR,,0.00,WeatherDisplay:10.37,2015-04-26 13:10:00,
2015-04-26 09:20:00,80.9,74.5,29.77,WSW,257,9.0,16.0,81,0.00,CLR,,0.00,WeatherDisplay:10.37,2015-04-26 13:20:00,
2015-04-26 09:30:00,81.6,74.5,29.78,WSW,247,7.0,20.0,79,0.00,CLR,,0.00,WeatherDisplay:10.37,2015-04-26 13:30:00,
2015-04-26 09:40:00,82.0,74.5,29.78,WSW,242,7.0,17.0,78,0.00,CLR,,0.00,WeatherDisplay:10.37,2015-04-26 13:40:00,
2015-04-26 09:50:00,82.7,74.8,29.77,WSW,240,6.0,16.0,77,0.00,CLR,,0.00,WeatherDisplay:10.37,2015-04-26 13:50:00,
2015-04-26 10:00:00,83.3,74.5,29.77,WSW,252,8.0,20.0,75,0.00,CLR,,0.00,WeatherDisplay:10.37,2015-04-26 14:00:00,
2015-04-26 10:05:00,83.5,73.9,29.77,WSW,254,9.0,23.0,73,0.00,CLR,,0.00,WeatherDisplay:10.37,2015-04-26 14:05:00,
2015-04-26 10:15:00,84.1,74.5,29.78,WSW,252,3.0,20.0,73,0.00,CLR,,0.00,WeatherDisplay:10.37,2015-04-26 14:15:00,
2015-04-26 10:20:00,84.4,74.8,29.78,WSW,242,3.0,16.0,73,0.00,CLR,,0.00,WeatherDisplay:10.37,2015-04-26 14:20:00,
2015-04-26 10:30:00,85.1,74.6,29.77,West,259,6.0,14.0,71,0.00,CLR,,0.00,WeatherDisplay:10.37,2015-04-26 14:30:00,
2015-04-26 10:40:00,85.8,75.3,29.77,WSW,253,2.0,17.0,71,0.00,CLR,,0.00,WeatherDisplay:10.37,2015-04-26 14:40:00,
2015-04-26 10:50:00,86.0,75.1,29.77,West,262,5.0,18.0,70,0.00,CLR,,0.00,WeatherDisplay:10.37,2015-04-26 14:50:00,
2015-04-26 11:01:00,86.6,75.2,29.77,WSW,247,9.0,17.0,69,0.00,CLR,,0.00,WeatherDisplay:10.37,2015-04-26 15:01:00,
2015-04-26 11:10:00,86.5,74.7,29.77,WSW,249,5.0,16.0,68,0.00,CLR,,0.00,WeatherDisplay:10.37,2015-04-26 15:10:00,
2015-04-26 11:20:00,87.0,74.3,29.77,WSW,246,9.0,19.0,66,0.00,CLR,,0.00,WeatherDisplay:10.37,2015-04-26 15:20:00,
2015-04-26 11:25:00,87.3,75.0,29.77,WSW,253,6.0,16.0,67,0.00,CLR,,0.00,WeatherDisplay:10.37,2015-04-26 15:25:00,
2015-04-26 11:30:00,87.5,74.7,29.77,WSW,253,2.0,16.0,66,0.00,CLR,,0.00,WeatherDisplay:10.37,2015-04-26 15:30:00,
2015-04-26 11:40:00,88.2,74.5,29.77,WSW,246,6.0,15.0,64,0.00,CLR,,0.00,WeatherDisplay:10.37,2015-04-26 15:40:00,
2015-04-26 11:50:00,88.9,75.1,29.77,West,263,10.0,20.0,64,0.00,CLR,,0.00,WeatherDisplay:10.37,2015-04-26 15:50:00,
2015-04-26 11:55:00,88.6,74.8,29.77,West,266,7.0,21.0,64,0.00,CLR,,0.00,WeatherDisplay:10.37,2015-04-26 15:55:00,
2015-04-26 12:05:00,89.2,75.0,29.77,West,265,10.0,21.0,63,0.00,CLR,,0.00,WeatherDisplay:10.37,2015-04-26 16:05:00,
2015-04-26 12:10:00,89.4,75.6,29.76,West,268,7.0,16.0,64,0.00,CLR,,0.00,WeatherDisplay:10.37,2015-04-26 16:10:00,
2015-04-26 12:20:00,89.7,76.4,29.76,West,276,3.0,18.0,65,0.00,CLR,,0.00,WeatherDisplay:10.37,2015-04-26 16:20:00,
2015-04-26 12:30:00,89.5,75.7,29.75,West,264,10.0,21.0,64,0.00,CLR,,0.00,WeatherDisplay:10.37,2015-04-26 16:30:00,
2015-04-26 12:40:00,90.7,76.4,29.76,West,267,7.0,15.0,63,0.00,CLR,,0.00,WeatherDisplay:10.37,2015-04-26 16:40:00,